FW7842 Weather Reports


time (UTC)temp
F
wind
direction
speed
knots
gust
knots
rain 1hr
in
rain 24hr
in
rain mn
in
humidity
%
barometer
mb
20260506130044 81 157 2.6 8.7 0.00 0.00 0.00 35 1010.9
20260506125033 79 172 3.5 8.7 0.00 0.00 0.00 37 1011.0
20260506124025 79 159 2.6 7.0 0.00 0.00 0.00 36 1011.1
20260506123033 78 165 2.6 7.0 0.00 0.00 0.00 37 1011.2
20260506122025 79 172 2.6 7.0 0.00 0.00 0.00 37 1011.3
20260506121032 79 155 2.6 7.8 0.00 0.00 0.00 37 1011.3
20260506120024 77 186 2.6 9.6 0.00 0.00 0.00 39 1011.4
20260506115016 77 188 3.5 7.0 0.00 0.00 0.00 38 1011.3
20260506114025 79 151 2.6 7.8 0.00 0.00 0.00 36 1011.4
20260506113017 78 150 1.7 4.3 0.00 0.00 0.00 37 1011.5
20260506112025 78 127 1.7 7.0 0.00 0.00 0.00 37 1011.5
20260506111033 78 163 2.6 8.7 0.00 0.00 0.00 38 1011.5
20260506110026 77 131 1.7 5.2 0.00 0.00 0.00 40 1011.7
20260506105037 76 148 1.7 5.2 0.00 0.00 0.00 39 1011.7
20260506104033 76 176 1.7 7.0 0.00 0.00 0.00 41 1011.8
20260506103033 75 128 2.6 7.8 0.00 0.00 0.00 41 1011.8
20260506102025 75 170 3.5 7.8 0.00 0.00 0.00 42 1012.0
20260506101033 75 143 3.5 7.8 0.00 0.00 0.00 42 1012.0
20260506100025 73 173 2.6 8.7 0.00 0.00 0.00 44 1012.1
20260506095053 73 157 3.5 7.8 0.00 0.00 0.00 45 1012.0
20260506094145 74 156 1.7 4.3 0.00 0.00 0.00 44 1012.0
20260506093033 74 171 2.6 7.0 0.00 0.00 0.00 44 1011.9
20260506092025 74 151 3.5 7.8 0.00 0.00 0.00 44 1012.0
20260506091017 74 173 4.3 8.7 0.00 0.00 0.00 44 1011.8
20260506090053 73 163 3.5 11.3 0.00 0.00 0.00 45 1011.9
20260506085017 73 150 2.6 7.8 0.00 0.00 0.00 46 1011.7
20260506084025 72 155 2.6 7.0 0.00 0.00 0.00 47 1011.9
20260506083018 72 194 1.7 7.0 0.00 0.00 0.00 46 1011.8
20260506082025 71 175 3.5 8.7 0.00 0.00 0.00 48 1011.9
20260506081033 70 152 2.6 5.2 0.00 0.00 0.00 49 1011.9
20260506073054 68 198 1.7 7.0 0.00 0.00 0.00 53 1012.0
20260506072025 68 147 1.7 7.0 0.00 0.00 0.00 53 1012.0
20260506071037 67 173 1.7 4.3 0.00 0.00 0.00 54 1011.9
20260506070113 67 166 1.7 7.0 0.00 0.00 0.00 55 1012.1
20260506062025 64 191 2.6 11.3 0.00 0.00 0.00 59 1011.9
20260506061033 63 168 1.7 4.3 0.00 0.00 0.00 61 1012.1
20260506051057 57 134 0.9 3.5 0.00 0.00 0.00 73 1011.9
20260506045057 55 141 0.9 2.6 0.00 0.00 0.00 75 1011.9
20260506044025 54 114 0.0 2.6 0.00 0.00 0.00 77 1011.9
20260506043018 53 122 0.0 0.9 0.00 0.00 0.00 80 1011.7
20260506042025 51 130 0.0 0.9 0.00 0.00 0.00 82 1011.5
20260506041033 51 0.0 0.0 0.00 0.00 0.00 81 1011.5
20260506040026 51 0.0 0.0 0.00 0.00 0.00 82 1011.3
20260506035017 51 105 0.0 0.9 0.00 0.00 0.00 82 1011.4
20260506034033 50 0.0 0.0 0.00 0.00 0.00 84 1011.4
20260506033017 49 82 0.0 0.9 0.00 0.00 0.00 85 1011.2
20260506032025 49 0.0 0.0 0.00 0.00 0.00 84 1011.2
20260506031049 49 0.0 0.0 0.00 0.00 0.00 83 1011.3
20260506030025 49 0.0 0.0 0.00 0.00 0.00 84 1011.3
20260506025033 49 0.0 0.0 0.00 0.00 0.00 83 1011.3
20260506024046 49 0.0 0.0 0.00 0.00 0.00 83 1011.2
20260506023033 49 0.0 0.0 0.00 0.00 0.00 81 1011.2
20260506022025 50 0.0 0.0 0.00 0.00 0.00 80 1011.2
20260506021033 50 0.0 0.0 0.00 0.00 0.00 79 1011.1
20260506020025 50 0.0 0.0 0.00 0.00 0.00 79 1011.2
20260506015033 50 0.0 0.0 0.00 0.00 0.00 79 1011.3
20260506014026 50 0.0 0.0 0.00 0.00 0.00 79 1011.3
20260506013018 50 0.0 0.0 0.00 0.00 0.00 79 1011.4
20260506012025 50 0.0 0.0 0.00 0.00 0.00 78 1011.4
20260506011033 50 0.0 0.0 0.00 0.00 0.00 78 1011.4
20260506010026 50 0.0 0.0 0.00 0.00 0.00 79 1011.5
20260506005017 50 0.0 0.0 0.00 0.00 0.00 79 1011.5
20260506004033 51 0.0 0.0 0.00 0.00 0.00 78 1011.5
20260506003017 50 0.0 0.0 0.00 0.00 0.00 79 1011.6
20260506002025 50 0.0 0.0 0.00 0.00 0.00 79 1011.5
20260506001041 50 0.0 0.0 0.00 0.00 0.00 79 1011.6
20260506000025 49 0.0 0.0 0.00 0.00 0.00 79 1011.5
20260505235033 49 0.0 0.0 0.00 0.00 0.00 77 1011.6
20260505234046 50 0.0 0.0 0.00 0.00 0.00 77 1011.7
20260505233033 51 0.0 0.0 0.00 0.00 0.00 76 1011.7
20260505232046 52 0.0 0.0 0.00 0.00 0.00 75 1011.7
20260505231034 52 0.0 0.0 0.00 0.00 0.00 75 1011.7
20260505230025 52 0.0 0.0 0.00 0.00 0.00 74 1011.4
20260505225033 52 0.0 0.0 0.00 0.00 0.00 74 1011.4
20260505224105 53 0.0 0.0 0.00 0.00 0.00 70 1011.4
20260505223033 53 0.0 0.0 0.00 0.00 0.00 70 1011.4
20260505222026 54 0.0 0.0 0.00 0.00 0.00 70 1011.4
20260505221039 54 0.0 0.0 0.00 0.00 0.00 69 1011.6
20260505220032 55 0.0 0.0 0.00 0.00 0.00 67 1011.6
20260505215034 56 0.0 0.0 0.00 0.00 0.00 65 1011.8
20260505214026 57 0.0 0.0 0.00 0.00 0.00 64 1011.6
20260505213114 58 0.0 0.0 0.00 0.00 0.00 62 1011.8
20260505212045 59 0.0 0.0 0.00 0.00 0.00 60 1011.8
20260505211034 59 0.0 0.0 0.00 0.00 0.00 59 1011.8
20260505210046 60 73 0.0 0.9 0.00 0.00 0.00 58 1011.8
20260505205018 59 0.0 0.0 0.00 0.00 0.00 59 1011.7
20260505204027 60 0.0 0.0 0.00 0.00 0.00 57 1011.7
20260505203017 59 0.0 0.0 0.00 0.00 0.00 57 1011.6
20260505202052 59 0.0 0.0 0.00 0.00 0.00 58 1011.4
20260505201018 58 0.0 0.0 0.00 0.00 0.00 57 1011.4
20260505200025 58 0.0 0.0 0.00 0.00 0.00 57 1011.3
20260505195034 58 0.0 0.0 0.00 0.00 0.00 56 1011.2
20260505194045 59 0.0 0.0 0.00 0.00 0.00 54 1011.1
20260505193033 61 0.0 0.0 0.00 0.00 0.00 52 1010.9
20260505192026 62 0.0 0.0 0.00 0.00 0.00 49 1010.7
20260505191034 64 0.0 0.0 0.00 0.00 0.00 47 1010.7
20260505190026 65 0.0 0.0 0.00 0.00 0.00 44 1010.6
20260505185018 67 0.0 0.0 0.00 0.00 0.00 42 1010.6
20260505184026 68 0.0 0.0 0.00 0.00 0.00 39 1010.6
20260505183034 69 171 0.0 2.6 0.00 0.00 0.00 38 1010.5
20260505182028 69 184 0.0 4.3 0.00 0.00 0.00 37 1010.3
20260505181018 70 126 0.0 2.6 0.00 0.00 0.00 36 1010.2
20260505180032 71 176 0.0 2.6 0.00 0.00 0.00 35 1010.2
20260505175018 73 0.0 0.0 0.00 0.00 0.00 34 1010.0
20260505174046 74 160 0.0 0.9 0.00 0.00 0.00 33 1010.1
20260505173046 75 115 0.9 3.5 0.00 0.00 0.00 31 1010.1
20260505172026 76 0.0 0.0 0.00 0.00 0.00 31 1010.1
20260505171034 77 0.0 0.0 0.00 0.00 0.00 29 1010.1
20260505170026 78 157 0.9 2.6 0.00 0.00 0.00 29 1010.2
20260505165034 78 116 0.9 3.5 0.00 0.00 0.00 29 1010.1
20260505164026 77 128 0.0 2.6 0.00 0.00 0.00 30 1010.4
20260505163034 77 150 0.9 3.5 0.00 0.00 0.00 29 1010.5
20260505162026 77 184 1.7 5.2 0.00 0.00 0.00 28 1010.6
20260505161034 78 156 1.7 4.3 0.00 0.00 0.00 27 1010.6
20260505153038 79 185 2.6 7.8 0.00 0.00 0.00 29 1010.8
20260505152033 79 134 1.7 7.0 0.00 0.00 0.00 28 1010.7
20260505151018 81 188 2.6 8.7 0.00 0.00 0.00 26 1010.7